Regional Weather Roundup
Issued by NWS

Home | Current Version | Previous Version | Graphics & Text | Print | Product List | Glossary On
Versions: 1 2 3 4 5 6 7 8 9 10 11 12 13 14 15 16 17 18 19 20 21 22 23 24 25 26 27 28 29 30 31 32 33 34 35 36 37 38 39 40 41 42 43 44 45 46 47 48 49 50
000
ASUS43 KOAX 280702
RWRNE

WEATHER ROUNDUP FOR NEBRASKA
NATIONAL WEATHER SERVICE OMAHA NE
200 AM CDT SAT MAR 28 2015

NOTES: SATELLITE DATA IS BEING USED TO AUGMENT CLOUD COVER ABOVE
       12000 FEET.
       "FAIR" INDICATES FEW OR NO CLOUDS BELOW 12,000 FEET WITH NO
       SIGNIFICANT WEATHER AND/OR OBSTRUCTIONS TO VISIBILITY.

  * THESE STATIONS DO NOT REPORT WEATHER SUCH AS RAIN...SNOW OR FOG.

NEZ001>004-019>022-054>056-280800-
NEBRASKA PANHANDLE

CITY           SKY/WX    TMP DP  RH WIND       PRES   REMARKS
SCOTTSBLUFF    CLEAR     38  30  73 W5        30.01F WCI  34
ALLIANCE       PTCLDY    36  30  79 SW7       30.00S WCI  30
CHADRON        PTCLDY    38  32  79 SW8       29.98S WCI  32
SIDNEY         CLEAR     37  29  72 W7        30.03F WCI  32
$$

NEZ057>060-069>072-079>082-280800-
SOUTHWEST NEBRASKA

CITY           SKY/WX    TMP DP  RH WIND       PRES   REMARKS
NORTH PLATTE   CLEAR     35  31  85 N3        29.98S
IMPERIAL         N/A     42  31  64 W3        29.99F
MCCOOK         CLOUDY    41  32  70 CALM      29.97F
$$

NEZ005>010-023>029-035>040-094-280800-
NORTH CENTRAL NEBRASKA

CITY           SKY/WX    TMP DP  RH WIND       PRES   REMARKS
VALENTINE      CLEAR     34  29  82 N3        29.97S
BROKEN BOW     PTCLDY    29  26  89 CALM      29.97R
ORD            CLOUDY    31  24  75 S3        29.98S
$$

NEZ041-046>049-061>064-073>077-083>087-280800-
SOUTH CENTRAL NEBRASKA

CITY           SKY/WX    TMP DP  RH WIND       PRES   REMARKS
GRAND ISLAND   PTCLDY    30  23  75 SE5       30.01R WCI  25
HASTINGS       PTCLDY    34  24  67 S7        29.98S WCI  28
KEARNEY *      CLEAR     30  21  69 S5        29.99R WCI  25
$$

NEZ011>018-030>034-042>045-280800-
NORTHEAST NEBRASKA

CITY           SKY/WX    TMP DP  RH WIND       PRES   REMARKS
NORFOLK        CLOUDY    33  26  75 E5        30.04R WCI  29
COLUMBUS *     MOCLDY    34  19  55 SE7       30.06S WCI  28
TEKAMAH        CLOUDY    36  22  56 E8        30.10R WCI  30
$$

NEZ050>053-065>068-078-088>093-280800-
SOUTHEAST NEBRASKA

CITY           SKY/WX    TMP DP  RH WIND       PRES   REMARKS
LINCOLN        CLOUDY    36  22  56 SE10      30.07R WCI  28
OMAHA EPPLEY   CLOUDY    36  23  59 SE13      30.09F WCI  27
FALLS CITY     CLOUDY    36  25  64 SE6       30.09S WCI  31
$$

NEZ044-045-051>053-067-280800-
OMAHA AREA

CITY           SKY/WX    TMP DP  RH WIND       PRES   REMARKS
OMAHA EPPLEY   CLOUDY    36  23  59 SE13      30.09F WCI  27
OFFUTT AFB     CLOUDY    35  25  65 SE8       30.09S WCI  29
$$



USA.gov is the U.S. government's official web portal to all federal, state and local government web resources and services.